Regional Weather Roundup
Issued by NWS Burlington, VT

Home | Current Version | Previous Version | Text Only | Print | Product List | Glossary On
Versions: 1 2 3 4 5 6 7 8 9 10 11 12 13 14 15 16 17 18 19 20 21 22 23 24 25 26 27 28 29 30 31 32 33 34 35 36 37 38 39 40 41 42 43 44 45 46 47 48 49 50
673
ASUS41 KBTV 170530
RWRBTV
VERMONT REGIONAL WEATHER ROUNDUP
NATIONAL WEATHER SERVICE BURLINGTON VT
1200 AM EST TUE JAN 17 2017

NOTE: "FAIR" INDICATES FEW OR NO CLOUDS BELOW 12,000 FEET WITH NO
SIGNIFICANT WEATHER AND/OR OBSTRUCTIONS TO VISIBILITY.

* THESE REPORTS ARE NOT UNDER NWS QUALITY CONTROL AND/OR DO NOT
  REPORT WEATHER SUCH AS PRECIPITATION AND FOG.

VTZ001>019-170600-
_____VERMONT_____


CITY           SKY/WX    TMP DP  RH WIND       PRES   REMARKS
BURLINGTON     CLOUDY    24  17  74 CALM      30.20F
MONTPELIER     CLOUDY    23  14  68 CALM      30.18F
MORRISVILLE    CLEAR     22  15  75 N5        30.18S WCI  16
ST. JOHNSBURY*   N/A     17  13  84 MISG      30.17F
LYNDONVILLE*   FAIR      18  14  86 CALM      30.16S
MIDDLEBURY*    FAIR      25  11  55 CALM      30.19S
RUTLAND*       CLEAR     26  18  71 E3        30.19F
SPRINGFIELD    CLEAR     18  15  88 CALM      30.19F
HIGHGATE*      FAIR      29  18  65 CALM      30.20S
NEWPORT*       FAIR      31  14  50 CALM      30.17R
BENNINGTON     CLOUDY    20  16  84 S3        30.22F
SUTTON*          N/A     21 N/A N/A MISG        N/A
ISLAND POND*     N/A      9 N/A N/A CALM        N/A
GALLUP MILLS*    N/A     10 N/A N/A MISG        N/A
UNION VILLAGE*   N/A     16 N/A N/A MISG        N/A
MT. MANSFIELD*   N/A     19 N/A N/A W41         N/A  WCI  -2

_____LAKE CHAMPLAIN_____


CITY           SKY/WX    TMP DP  RH WIND       PRES   REMARKS

$$

NYZ007-026>031-035-052-083-087-170600-
_____NORTHERN NEW YORK_____


CITY           SKY/WX    TMP DP  RH WIND       PRES   REMARKS
PLATTSBURGH    CLOUDY    29  16  58 CALM      30.20S
SARANAC LAKE   CLOUDY    15   9  76 CALM      30.15F
MASSENA        CLOUDY    29  25  85 SW7       30.23S WCI  22
OGDENSBURG*    CLEAR     27  25  93 S3        30.22S
POTSDAM*       CLEAR     28  25  86 SW5       30.22S WCI  23
WATERTOWN      CLEAR     21  19  92 CALM      30.23F
FT DRUM        CLEAR     24  17  77 S6        30.21F WCI  16
ALBANY         PTCLDY    25  18  74 CALM      30.25F
GLENS FALLS    CLEAR     25  17  72 SW6       30.23S WCI  18

$$
NHZ002-005-011-170600-
_____NEW HAMPSHIRE_____


CITY           SKY/WX    TMP DP  RH WIND       PRES   REMARKS
LEBANON        CLEAR     19  16  88 CALM      30.18F
KEENE          CLEAR     18  16  92 S3        30.22F
MT WASHINGTON  PTCLDY    14   9  79 W60         N/A  WCI -13
PLYMOUTH       FAIR      21  16  81 CALM      30.16S
WHITEFIELD     CLOUDY    13   8  81 CALM      30.14F

$$

_____REGIONAL QUEBEC LOCATIONS_____


CITY           SKY/WX    TMP DP  RH WIND       PRES   REMARKS
MONTREAL       MOCLDY    30  25  80 W10       30.20F WCI  21
QUEBEC CITY    MOCLDY    28  21  74 W12       30.13R WCI  18
SHERBROOKE     CLOUDY    30  21  69 W7        30.13F WCI  23

_____REGIONAL ONTARIO LOCATIONS_____


CITY           SKY/WX    TMP DP  RH WIND       PRES   REMARKS
OTTAWA         CLEAR     25  18  74 SW6       30.20S WCI  18

______KEY______
VSB  - VISIBILITY IN MILES
WCI  - WIND CHILL INDEX
HX   - HEAT INDEX
$$
NNNN




USA.gov is the U.S. government's official web portal to all federal, state and local government web resources and services.